SUOMI-100 (43804 NORAD) Tracking and Keplerian Element Data

This shows tracking and keplerian element data for the satellite.

Feedback or suggestion? Click here.




ElementValue
Catalog43804
NameSUOMI-100
Epoch Orbit15247
Epoch Day261.91971116
Epoch Year2021
RAAN330.4553
Inclination97.6551
Eccentricity0.0016542
Argument of Perigee98.0293
Mean Anonmoly262.2806
Mean Motion14.95939847
Decay Rate3.43E-06
L11 43804U 18099AY 21261.91971116 .00000343 00000-0 35609-4 0 9990
L22 43804 97.6551 330.4553 0016542 98.0293 262.2806 14.95939847152470

Live tracking and technical data element details for SUOMI-100 (NORAD 43804). SUOMI-100 can be tracked NOW for your location showing map with azimuth and elevation plus other details from your city location.

Track the satellite on the map from your city or location and see movement details for azimuth, elevation, latitude, longitude, range, height, and movement on the map or in text.







IsCatalogInMostPopularTable: catalog: 43804, numindb: 903
Update: records affected: 1



GetName: 43804 SUOMI-100

Hit Count: updated at: Sun, 26 Sep 2021 00:37:30 GMT